User: anonymous   Login
Location: Unspecified
(0.0000°N, 0.0000°E)
Time: 18:36:56
(UTC+00:00)
Language:

RESURS P1 - Orbit

View from above orbital plane
View from above orbital plane
View from above satellite
View from above satellite

Ground track
Ground track

The orbit data is extracted from the following two-line orbital elements,

1 39186U 13030A   19107.83773917 +.00000925 +00000-0 +31337-4 0  9994
2 39186 097.2762 176.0163 0016880 183.4935 268.9083 15.32974497325111
Epoch (UTC): 17 April 2019 20:06:20
Eccentricity: 0.0016880
inclination: 97.2762°
perigee height: 455 km
apogee height: 478 km
right ascension of ascending node: 176.0163°
argument of perigee: 183.4935°
revolutions per day: 15.32974497
mean anomaly at epoch: 268.9083°
orbit number at epoch: 32511

The dashed part of the orbit path shows where the satellite is in the earth's shadow,  

DLR